Regional Weather Roundup
Issued by NWS

Home | Current Version | Previous Version | Text Only | Print | Product List | Glossary Off
Versions: 1 2 3 4 5 6 7 8 9 10 11 12 13 14 15 16 17 18 19 20 21 22 23 24 25 26 27 28 29 30 31 32 33 34 35 36 37 38 39 40 41 42 43 44 45 46 47 48 49 50

000
ASUS43 KDMX 120903
RWRIA

WEATHER ROUNDUP FOR IOWA
NATIONAL WEATHER SERVICE DES MOINES IA
300 AM CST FRI FEB 12 2016

NOTE: "FAIR" INDICATES FEW OR NO CLOUDS BELOW 12,000 FEET WITH NO
SIGNIFICANT WEATHER AND/OR OBSTRUCTIONS TO VISIBILITY.

* - THESE STATIONS ARE NOT NWS STATIONS...THUS NOT UNDER NWS
QUALITY CONTROL.  THEY ALSO DO NOT REPORT WEATHER SUCH
AS PRECIPITATION OR FOG.

IAZ001>003-012>014-020>022-031>034-043>046-121000-
   NORTHWEST IOWA

CITY           SKY/WX    TMP DP  RH WIND       PRES   REMARKS
CARROLL *      CLOUDY    18  16  93 NW8       30.24R WCI   7
CHEROKEE *     CLOUDY    15  14  96 N8        30.27R WCI   4
DENISON *      CLOUDY    19  16  86 NW8       30.23R WCI   9
LE MARS *      CLOUDY    14  16 100 NW5       30.30R WCI   6
ORANGE CITY *  CLOUDY    16  16 100 NW5       30.26R WCI   9
SHELDON *      FLURRIES  14  12  92 NW9       30.25R WCI   2
SIOUX CITY     CLOUDY    15  11  83 W7        30.30R FOG     WCI   5
SPENCER        CLOUDY    16  11  80 NW14      30.24R WCI   2
STORM LAKE *   CLOUDY    14  14 100 NW15      30.22S WCI  -1
$$

IAZ055>058-069>071-079>083-090>094-121000-
   SOUTHWEST IOWA

CITY           SKY/WX    TMP DP  RH WIND       PRES   REMARKS
ATLANTIC *     CLOUDY    21  19  93 NW5       30.23R WCI  15
AUDUBON *      MOCLDY    19  16  86 NW6       30.22R WCI  11
CLARINDA *     CLOUDY    27  21  80 N3        30.25R
COUNCIL BLFS * CLOUDY    23  21  93 N6        30.24R WCI  16
CRESTON *      CLOUDY    21  19  93 NW5       30.21S WCI  15
HARLAN  *      CLOUDY    21  19  93 NW8       30.27R WCI  12
LAMONI         CLOUDY    21  18  88 CALM      30.20S
RED OAK *      CLOUDY    25  21  86 N5        30.24R WCI  19
SHENANDOAH *   CLOUDY    27  25  93 NW3       30.26R
$$

IAZ047>049-059>061-072>074-084-121000-
   CENTRAL IOWA

CITY           SKY/WX    TMP DP  RH WIND       PRES   REMARKS
AMES           CLOUDY    18  14  84 NW6       30.22S WCI  10
ANKENY *       CLOUDY    19  18  93 NW5       30.23S WCI  13
BOONE *        CLOUDY    18  14  86 W6        30.20S WCI   9
CHARITON *     CLOUDY    19  18  93 CALM      30.21F
DES MOINES     CLOUDY    20  15  81 W5        30.22S WCI  13
GRINNELL*      CLOUDY    19  18  93 W5        30.21S WCI  13
KNOXVILLE *    CLOUDY    19  16  86 SW3       30.20S
MARSHALLTOWN   CLOUDY    17  14  88 W7        30.21R WCI   8
NEWTON *       CLOUDY    18  18 100 W5        30.21S WCI  11
PELLA *        CLOUDY    19  17  93 CALM      30.23S
$$

IAZ004>006-015-016-023>025-035-036-121000-
   NORTH CENTRAL IOWA

CITY           SKY/WX    TMP DP  RH WIND       PRES   REMARKS
ALGONA *       FLURRIES  16  14  93 NW12      30.20S WCI   3
CLARION *      CLOUDY    16  12  86 NW10      30.22S WCI   3
ESTHERVILLE    CLOUDY    14  11  87 NW12      30.21S WCI   0
FORT DODGE *   CLOUDY    16  10  79 NW8       30.23S WCI   5
MASON CITY     CLOUDY    14  10  84 W12       30.21S WCI   0
FOREST CITY *  CLOUDY    14  12  92 W8        30.20R WCI   3
WEBSTER CITY * CLOUDY    16  14  93 W9        30.20F WCI   4
IOWA FALLS *   CLOUDY    18  14  86 W10       30.21S WCI   6
$$

IAZ007>011-017>019-026>030-037>042-050>054-066-121000-
   NORTHEAST IOWA

CITY           SKY/WX    TMP DP  RH WIND       PRES   REMARKS
CEDAR RAPIDS   CLOUDY    19  16  88 W7        30.19F WCI  10
CHARLES CITY * FLURRIES  14  10  85 W10       30.19F WCI   1
CLINTON *      MOCLDY    14  12  92 W6        30.20F WCI   5
DECORAH *      CLOUDY    12   9  85 VRB3      30.16S
DUBUQUE        CLOUDY    15   7  70 W3        30.17S
MONTICELLO *   CLOUDY    16  10  79 CALM      30.19F
OELWEIN *      CLOUDY    14   7  73 W8        30.19S WCI   3
WATERLOO       CLOUDY    14   8  77 W5        30.21R WCI   6
$$

IAZ064-065-067-068-078-121000-
   EAST CENTRAL IOWA

CITY           SKY/WX    TMP DP  RH WIND       PRES   REMARKS
DAVENPORT      CLOUDY    20  15  81 W9        30.20F WCI   9
IOWA CITY      CLOUDY    20  17  88 W3        30.23F
MT. PLEASANT * CLOUDY    23  20  88 SW3       30.23S
MUSCATINE *    CLOUDY    21  18  86 W6        30.23F WCI  14
QUAD CITIES    MOCLDY    20  14  77 W8        30.20F WCI  10
$$

IAZ062-063-075>077-085>089-095>099-121000-
   SOUTHEAST IOWA

CITY           SKY/WX    TMP DP  RH WIND       PRES   REMARKS
BURLINGTON     CLOUDY    21  18  88 W5        30.22S WCI  15
FAIRFIELD *    CLOUDY    19  16  86 SW3       30.22S
FORT MADISON * CLOUDY    19  18  93 W3        30.22F
KEOKUK *       CLOUDY    19  19 100 CALM      30.22F
OSKALOOSA *    CLOUDY    19  17  92 SW6       30.22F WCI  11
OTTUMWA        CLOUDY    19  18  95 SW3       30.21F
WASHINGTON *   CLOUDY    21  19  93 W3        30.23S
$$

ABBREVIATIONS USED IN REMARKS
   TC - TEMPERATURES IN CELSIUS
  WCI - WIND CHILL INDEX
   HX - HEAT INDEX
  VSB - VISIBILITY
$$




USA.gov is the U.S. government's official web portal to all federal, state and local government web resources and services.